COSMOS 2251 DEB

Satellite information

Favourite Embed

Satellite Type and Status

DEBRISIN ORBIT

Key statistics

Satellite COSMOS 2251 DEB at a glance.

Uptime

11764

Days in orbit

Revolutions

≈ 14.3

Per day

Orbit

LEO

Low Earth Orbit

Inclination

74.0

Latest

Satellite identification and parameters

Extended collection of information and parameters for COSMOS 2251 DEB.

Object identification

Identified? True

Debris? True

Object name: COSMOS 2251 DEB

International designator: 1993-036AUZ

Object number (NORAD): 35959

Object ID (CCSDS): 35959

Country: COMMONWEALTH OF INDEPENDENT STATES (CIS)

Current information (Y/N): Y

RCS size: SMALL

Orbital parameters

Period: 100.416 minutes

Inclination: 74.033 deg

SMA: 7156.431 km

Apoapsis: 795.158 km

Periapsis: 761.435 km

RAAN: 148.9508 deg

Eccentricy: 0.00235612

Argument of periapsis: 258.7738 deg

Mean anomaly: 101.0766 deg

Mean motion: 14.34029233 rev/day

Mean motion (dot): 0.00000266 rev/day2

B* drag term: 0.00010421612 1/REarth

Two-line elements (TLE)

Creation date: Aug. 27, 2025, 12:18 p.m.

Reference frame: TEME

Reference center: EARTH

Epoch: Aug. 27, 2025, 4:21 a.m. UTC

TLE line 0: 0 COSMOS 2251 DEB

TLE line 1: 1 35959U 93036AUZ 25239.18126304 .00000266 00000-0 10422-3 0 9994

TLE line 2: 2 35959 74.0330 148.9508 0023561 258.7738 101.0766 14.34029233833862

Live tracking on map

Real-time ground track for satellite COSMOS 2251 DEB.

In-orbit conjunctions

A list of the most updated potential collisions computed for object COSMOS 2251 DEB.

Target Orbit TCA Probability of collision Miss distance Type
CZ-6A DEB LEO 2025-06-28 07:21:02 0.0002338171 289.0 (m) DEBRIS
FENGYUN 1C DEB SSO 2025-03-27 14:20:37 0.0002311799 416.0 (m) DEBRIS
COSMOS 1354 LEO 2024-12-31 05:18:57 0.0003115316 553.0 (m) PAYLOAD

Associated space launch

Military communications satellite. Destroyed in a collision with Iridium 33.

COSMOS 2251 DEB was lifted into orbit during the mission ‘Kosmos-3M | Strela-2M 51’, on board a Kosmos-3M space rocket.

The launch took place on June 16, 1993, 4:17 a.m. from 132/1 (132L).

For more information about the launch, click the button.

Launch to space Kosmos-3M | Strela-2M 51
Kosmos-3M | Strela-2M 51

Agency: N/A

Status: Launch Successful

Launch date: June 16, 1993, 4:17 a.m. UTC

Rocket: Kosmos-3M

Launch pad: 132/1 (132L)

Location: Plesetsk Cosmodrome, Russian Federation

...

Latest news about this satellite

There are no fresh news available about this satellite. Check back as we update our databases every day.


Newsletter sign-up

Weekly statistics, charts and insights to help you stay on top of the space industry.